{"data":{"norad_id":65539,"intl_designator":"2025-200V","name":"STARLINK-35110","alt_names":[],"object_type":"PAYLOAD","status":"ACTIVE","operator":null,"country":"US","launch_date":"2025-09-06","launch_site_code":"AFWTR","launch_vehicle":null,"mission":null,"orbit_class":"UNKNOWN","rcs_meters":null,"size_class":null,"mass_kg":null,"dimensions":null,"purposes":["comms"],"wikipedia_slug":null,"has_3d_model":false,"image_url":null,"decayed_at":null,"tle_current":{"epoch":"2026-05-25T04:13:33.127104Z","epoch_age_seconds":63362,"freshness":"FRESH","line1":"1 65539U 25200V   26145.17607786 -.00010258  00000+0 -70839-3 0  9994","line2":"2 65539  97.4528 214.8824 0002102 197.2257 162.8899 15.05624909 40640","mean_motion":15.05624909,"eccentricity":0.0002102,"inclination_deg":97.4528,"raan_deg":214.8824,"arg_perigee_deg":197.2257,"mean_anomaly_deg":162.8899,"bstar":-0.00070839,"rev_number":4064,"period_min":95.641350736978,"perigee_km":548.13191144281,"apogee_km":551.04432708295,"semimajor_km":6927.7251192629,"source":"CELESTRAK","updated_at":"2026-05-25T13:38:20.850438Z"}}}